Waarnemingen

Advertentie
Mijn weer
Landsort, Zweden (2567): temperatuur & dauwpunt: 18.02.2018 22:00:00 - 24.02.2018 22:00:00 (CET)Landsort, Zweden (2567): windsnelheid & windstoten: 18.02.2018 22:00:00 - 24.02.2018 22:00:00 (CET)Landsort, Zweden (2567): windrichting: 18.02.2018 22:00:00 - 24.02.2018 22:00:00 (CET)Landsort, Zweden (2567): luchtdruk: 18.02.2018 22:00:00 - 24.02.2018 22:00:00 (CET)Landsort, Zweden (2567): zicht: 18.02.2018 22:00:00 - 24.02.2018 22:00:00 (CET)Landsort, Zweden (2567): neerslag: 18.02.2018 22:00:00 - 24.02.2018 22:00:00 (CET)
Datum & Tijd tt [°C] td [°C] ff [km/u] ff [kn] fx [km/u] fx [kn] dd ppp [hPa] vv [km] rr [mm]
24.02.2018 22:00:00 -6,5 -9,5 25 14 39 21 N 1038,2 50 0,0
24.02.2018 21:00:00 -6,3 -9,1 23 12 34 18 N 1038,2 50 0,0
24.02.2018 20:00:00 -6,0 -9,3 18 10 29 16 N 1038,2 50 0,0
24.02.2018 19:00:00 -6,3 -9,7 16 8 26 14 NNW 1038,3 50 0,0
24.02.2018 18:00:00 -6,1 -10,8 14 7 27 15 N 1038,3 50 0,0
24.02.2018 17:00:00 -5,4 -10,9 14 8 32 18 N 1038,3 50 0,0
24.02.2018 16:00:00 -4,8 -10,6 20 11 35 19 NNO 1038,3 50 0,0
24.02.2018 15:00:00 -4,7 -10,0 22 12 35 19 NO 1038,4 50 0,0
24.02.2018 14:00:00 -4,9 -10,6 21 11 33 18 NO 1038,5 50 0,0
24.02.2018 13:00:00 -5,0 -10,9 23 12 36 19 NO 1038,5 50 0,0
24.02.2018 12:00:00 -5,1 -10,1 27 14 39 21 NO 1038,7 50 0,0
24.02.2018 11:00:00 -5,1 -9,5 29 16 39 21 NO 1038,7 48 0,0
24.02.2018 10:00:00 -5,4 -8,9 29 15 39 21 NNO 1038,6 50 0,0
24.02.2018 09:00:00 -5,8 -8,5 22 12 33 18 N 1038,2 50 0,0
24.02.2018 08:00:00 -6,7 -8,3 22 12 32 18 N 1037,9 50 0,0
24.02.2018 07:00:00 -7,0 -8,5 22 12 37 20 N 1037,7 50 0,0
24.02.2018 06:00:00 -6,1 -7,8 23 13 37 20 NNO 1037,2 50 0,0
24.02.2018 05:00:00 -5,9 -7,2 29 15 35 19 NNO 1036,5 50 0,0
24.02.2018 04:00:00 -6,2 -8,0 24 13 36 19 NNO 1035,9 50 0,0
24.02.2018 03:00:00 -6,0 -8,0 25 13 37 20 N 1035,4 48 0,0
24.02.2018 02:00:00 -5,6 -7,7 25 14 37 20 NNO 1035,1 50 0,0
24.02.2018 01:00:00 -5,4 -7,8 29 15 36 20 N 1034,7 48 0,0
24.02.2018 00:00:00 -5,6 -8,0 25 13 37 20 NNO 1034,1 44 0,0
23.02.2018 23:00:00 -5,4 -8,1 18 10 45 24 N 1033,6 32 0,0
23.02.2018 22:00:00 -4,0 -7,8 32 17 45 24 NNO 1033,2 50 0,0
23.02.2018 21:00:00 -5,1 -8,5 18 10 51 27 N 1032,5 50 0,0
23.02.2018 20:00:00 -3,9 -7,2 22 12 51 27 NNO 1031,9 47 0,0
23.02.2018 19:00:00 -3,1 -7,9 36 20 46 25 NO 1030,8 50 0,0
23.02.2018 18:00:00 -2,8 -7,0 40 21 46 25 NO 1030,3 50 0,0
23.02.2018 17:00:00 -2,7 -6,2 36 19 46 25 NO 1029,6 50 0,0
23.02.2018 16:00:00 -3,0 -4,5 35 19 46 25 ONO 1028,7 4,7 0,0
23.02.2018 15:00:00 - - - - - - - - - -
23.02.2018 14:00:00 -2,1 -5,1 28 15 35 19 NNO 1027,8 27 0,0
23.02.2018 13:00:00 -1,9 -5,5 22 12 32 17 NNO 1027,5 46 0,0
23.02.2018 12:00:00 -2,2 -6,4 17 9 37 20 N 1027,3 42 0,0
23.02.2018 11:00:00 -2,3 -6,4 25 13 37 20 NNO 1027,0 50 0,0
23.02.2018 10:00:00 -2,6 -6,1 25 13 33 18 NNO 1026,6 50 0,0
23.02.2018 09:00:00 -2,7 -3,9 22 12 31 17 NNO 1026,1 19 0,0
23.02.2018 08:00:00 -2,9 -3,8 13 7 23 12 N 1025,6 17 0,0
23.02.2018 07:00:00 -3,0 -4,4 15 8 23 12 N 1025,6 28 0,0
23.02.2018 06:00:00 -2,7 -4,1 16 8 24 13 NNW 1025,4 22 0,0
23.02.2018 05:00:00 -2,7 -4,1 16 9 24 13 NNW 1025,3 19 0,0
23.02.2018 04:00:00 -2,6 -4,3 16 9 24 13 NNW 1025,6 27 0,0
23.02.2018 03:00:00 -2,5 -4,3 12 7 21 11 NW 1026,0 37 0,0
23.02.2018 02:00:00 -2,6 -4,4 14 8 21 11 NW 1026,3 19 0,0
23.02.2018 01:00:00 -2,4 -3,7 13 7 23 12 WNW 1026,6 17 0,1
23.02.2018 00:00:00 -2,4 -3,9 16 9 26 14 W 1026,8 5 0,0
22.02.2018 23:00:00 -2,1 -4,6 17 9 26 14 W 1027,2 40 0,0
22.02.2018 22:00:00 -2,1 -5,2 16 9 24 13 W 1027,7 31 0,0
22.02.2018 21:00:00 -2,3 -6,3 13 7 24 13 W 1027,9 50 0,0
22.02.2018 20:00:00 -2,4 -6,4 12 6 28 15 WNW 1028,1 50 0,0
22.02.2018 19:00:00 -2,6 -6,6 18 10 29 16 WNW 1028,5 50 0,0
22.02.2018 18:00:00 -2,8 -7,3 18 10 33 18 WNW 1028,4 50 0,0
22.02.2018 17:00:00 -2,8 -7,5 18 10 32 18 WNW 1028,4 50 0,0
22.02.2018 16:00:00 -2,0 -7,4 14 8 20 11 W 1028,6 49 0,0
22.02.2018 15:00:00 -2,0 -6,7 11 6 19 10 W 1028,9 50 0,0
22.02.2018 14:00:00 -2,1 -6,3 11 6 19 10 WZW 1029,4 41 0,0
22.02.2018 13:00:00 -2,7 -5,5 11 6 18 10 WZW 1030,0 36 0,0
22.02.2018 12:00:00 -3,1 -4,9 9 5 20 11 W 1030,1 35 0,0
22.02.2018 11:00:00 -3,2 -4,6 8 5 20 11 WNW 1030,0 31 0,0
22.02.2018 10:00:00 -3,2 -4,6 10 5 23 12 WNW 1029,9 24 0,0
22.02.2018 09:00:00 -3,1 -4,7 16 9 23 12 WNW 1030,1 38 0,0
22.02.2018 08:00:00 -2,5 -4,6 16 8 23 12 W 1029,8 50 0,0
22.02.2018 07:00:00 -2,2 -5,3 12 6 33 18 ZW 1029,7 50 0,0
22.02.2018 06:00:00 -2,0 -4,4 18 10 33 18 ZZW 1029,4 50 0,0
22.02.2018 05:00:00 -2,5 -4,9 23 13 31 17 ZZO 1029,4 36 0,0
22.02.2018 04:00:00 -2,5 -5,0 22 12 29 16 Z 1029,3 12 0,0
22.02.2018 03:00:00 -2,3 -5,0 22 12 32 18 Z 1029,5 40 0,0
22.02.2018 02:00:00 -2,0 -5,0 23 13 37 20 ZZO 1029,4 18 0,0
22.02.2018 01:00:00 -2,2 -4,4 27 15 41 22 ZZO 1029,3 36 0,0
22.02.2018 00:00:00 -1,9 -2,7 29 16 41 22 ZO 1029,1 16 0,1
21.02.2018 23:00:00 -2,1 -4,2 29 15 38 20 OZO 1029,0 43 0,0
21.02.2018 22:00:00 -2,1 -2,5 27 14 34 18 O 1028,8 4,4 0,2
21.02.2018 21:00:00 -2,3 -4,0 24 13 29 16 ZO 1028,5 27 0,0
21.02.2018 20:00:00 -2,8 -4,0 16 9 26 14 O 1028,0 2,3 0,2
21.02.2018 19:00:00 -4,4 -6,0 11 6 23 12 NNW 1027,8 49 0,0
21.02.2018 18:00:00 -3,7 -7,6 10 6 23 12 N 1027,6 50 0,0
21.02.2018 17:00:00 -3,0 -8,3 12 7 22 12 N 1027,2 50 0,0
21.02.2018 16:00:00 -2,9 -8,6 15 8 22 12 NNO 1027,1 50 0,0
21.02.2018 15:00:00 -3,0 -8,8 15 8 22 12 NO 1026,9 50 0,0
21.02.2018 14:00:00 -3,2 -9,0 16 8 22 12 NO 1027,1 50 0,0
21.02.2018 13:00:00 -3,5 -8,6 14 7 22 12 NNO 1027,2 50 0,0
21.02.2018 12:00:00 -3,6 -8,5 16 9 22 12 NNO 1027,3 50 0,0
21.02.2018 11:00:00 -3,9 -8,7 15 8 21 11 NNO 1027,2 50 0,0
21.02.2018 10:00:00 -4,3 -8,4 14 8 19 10 N 1027,2 50 0,0
21.02.2018 09:00:00 -5,2 -8,4 14 7 18 10 NNW 1027,1 50 0,0
21.02.2018 08:00:00 -5,2 -8,0 10 5 19 10 N 1026,8 50 0,0
21.02.2018 07:00:00 -5,1 -7,1 9 5 19 10 NNW 1026,6 13 0,0
21.02.2018 06:00:00 -4,9 -7,4 13 7 19 10 NNO 1026,5 48 0,0
21.02.2018 05:00:00 -5,3 -8,3 9 5 19 11 N 1027,1 50 0,0
21.02.2018 04:00:00 -4,9 -8,2 11 6 19 11 N 1027,2 50 0,0
21.02.2018 03:00:00 -4,8 -7,9 10 6 17 9 N 1027,3 50 0,0
21.02.2018 02:00:00 -4,9 -8,6 10 6 21 11 N 1027,6 50 0,0
21.02.2018 01:00:00 -5,0 -8,5 11 6 22 12 N 1027,8 50 0,0
21.02.2018 00:00:00 -4,6 -8,4 15 8 23 12 N 1028,0 50 0,0
20.02.2018 23:00:00 -4,7 -8,2 12 6 23 12 N 1027,9 50 0,0
20.02.2018 22:00:00 -4,4 -8,2 14 8 22 12 N 1027,9 50 0,0
20.02.2018 21:00:00 -4,1 -7,4 13 7 23 12 N 1027,9 50 0,0
20.02.2018 20:00:00 -3,8 -7,9 14 8 25 13 NNO 1028,0 50 0,0
20.02.2018 19:00:00 -3,9 -6,0 14 8 25 13 NNO 1028,0 5 0,1
20.02.2018 18:00:00 -3,6 -5,2 13 7 22 12 NNO 1028,0 3,6 0,0
20.02.2018 17:00:00 -3,3 -6,6 8 5 18 10 NNO 1027,8 21 0,0
20.02.2018 16:00:00 -3,2 -7,1 12 6 19 10 NNO 1027,7 22 0,0
20.02.2018 15:00:00 -3,1 -7,4 10 6 23 12 NO 1027,9 26 0,0
20.02.2018 14:00:00 -3,1 -7,4 11 6 24 13 NO 1028,1 27 0,0
20.02.2018 13:00:00 -3,1 -7,0 14 7 26 14 NO 1028,4 22 0,0
20.02.2018 12:00:00 -2,8 -7,5 17 9 26 14 NO 1028,5 44 0,0
20.02.2018 11:00:00 -2,8 -7,0 19 10 29 16 NO 1028,3 27 0,0
20.02.2018 10:00:00 -3,1 -5,6 22 12 29 16 NO 1028,3 35 0,0
20.02.2018 09:00:00 -3,5 -4,7 23 12 29 16 NNO 1028,2 6 0,0
20.02.2018 08:00:00 -3,8 -5,8 23 13 28 15 NNO 1028,1 6 0,0
20.02.2018 07:00:00 -3,6 -6,1 18 10 28 15 N 1028,1 15 0,0
20.02.2018 06:00:00 -3,7 -6,2 22 12 29 16 NNO 1028,0 23 0,0
20.02.2018 05:00:00 -3,5 -5,7 21 11 29 16 NNO 1027,8 23 0,0
20.02.2018 04:00:00 -3,6 -5,9 18 10 28 15 N 1028,0 22 0,0
20.02.2018 03:00:00 -3,7 -5,8 13 7 29 15 N 1028,3 19 0,0
20.02.2018 02:00:00 -3,7 -5,6 16 8 30 16 N 1028,2 13 0,0
20.02.2018 01:00:00 -3,1 -5,6 20 11 30 16 NO 1028,2 20 0,0
20.02.2018 00:00:00 -3,4 -5,5 20 11 36 20 NNO 1028,3 17 0,0
19.02.2018 23:00:00 -3,3 -5,5 24 13 36 20 NO 1028,1 19 0,0
19.02.2018 22:00:00 -3,3 -5,4 29 16 37 20 NO 1027,9 19 0,0
19.02.2018 21:00:00 -3,2 -5,8 25 13 39 21 NO 1027,9 23 0,0
19.02.2018 20:00:00 -3,0 -5,3 30 16 41 22 NO 1027,6 20 0,0
19.02.2018 19:00:00 -2,6 -5,2 32 17 41 22 NO 1027,3 25 0,0
19.02.2018 18:00:00 -2,4 -4,5 34 19 42 23 NO 1026,9 19 0,0
19.02.2018 17:00:00 -2,3 -4,0 35 19 48 26 NO 1026,6 13 0,0
19.02.2018 16:00:00 -2,2 -3,8 37 20 51 27 NO 1026,0 9 0,0
19.02.2018 15:00:00 -1,6 -3,0 42 23 52 28 NO 1025,5 8 0,0
19.02.2018 14:00:00 -0,9 -2,1 42 23 52 28 ONO 1025,1 8 0,0
19.02.2018 13:00:00 -0,7 -1,8 43 23 52 28 ONO 1024,7 10 0,0
19.02.2018 12:00:00 -0,3 -0,4 42 23 52 28 ONO 1024,4 6 0,0
19.02.2018 11:00:00 -0,3 -0,5 45 24 53 29 ONO 1023,7 2,3 0,1
19.02.2018 10:00:00 0,3 0,2 39 21 53 29 O 1023,1 4,5 0,0
19.02.2018 09:00:00 0,2 0,1 43 23 50 27 O 1022,7 3,2 0,0
19.02.2018 08:00:00 1,4 0,2 15 8 22 12 ONO 1022,3 20 0,0
19.02.2018 07:00:00 1,3 0,2 18 10 23 12 O 1022,0 22 0,0
19.02.2018 06:00:00 1,3 0,6 17 9 23 13 O 1021,6 14 0,0
19.02.2018 05:00:00 1,2 0,7 21 11 23 13 O 1021,4 12 0,0
19.02.2018 04:00:00 1,1 0,4 5 3 8 4 OZO 1021,7 14 0,0
19.02.2018 03:00:00 1,0 0,1 3 2 9 5 ONO 1021,8 16 0,0
19.02.2018 02:00:00 1,2 -0,3 0 0 13 7 N 1022,1 22 0,0
19.02.2018 01:00:00 1,4 0,0 7 4 14 7 W 1022,1 25 0,0
19.02.2018 00:00:00 1,5 0,1 10 6 14 8 W 1022,3 23 0,0
18.02.2018 23:00:00 1,5 0,2 10 6 20 11 WZW 1022,4 21 0,0
18.02.2018 22:00:00 1,3 -0,1 11 6 22 12 WZW 1022,5 27 0,0

tt = temperatuur
td = dauwpunt
ff = windsnelheid
fx = windstoten
dd = windrichting
ppp = luchtdruk
vv = zicht
rr = neerslag

Weerstations in de omgeving